Flag for Canada Weather past 2 weeks in Toronto, Ontario, Canada

Now
77 °F

Passing clouds.


Feels Like: 79 °F
Forecast: 66 / 82 °F
Wind: 12 mph from West

Location: Toronto Pearson International Airport

Current Time: Jul 30, 2015 at 9:51:10 PM

Latest Report: Jul 30, 2015 at 9:00 PM


Visibility: 15 mi

Pressure: 29.83 "Hg

Humidity: 47%

Dew point: 55 °F

Location of TorontoLocation

Historic Weather in Toronto — Graph

°F

Toronto temperature yesterday

Maximum temperature yesterday: 90 °F (at 1:00 PM)
Minimum temperature yesterday: 70 °F (at 5:00 AM)
Average temperature yesterday: 81 °F

Past Weeks' High & Low Weather Summary

 TemperatureHumidityPressure
High91 °F (Jul 28, 3:00 PM)100% (Jul 18, 6:52 AM)30.14 "Hg (Jul 18, 6:52 AM)
Low55 °F (Jul 16, 4:00 AM)30% (Jul 24, 12:00 PM)29.61 "Hg (Jul 21, 3:03 AM)
Average74 °F59%29.89 "Hg
* Reported Jul 15 8:00 PM — Jul 30 8:00 PM, Toronto, Weather by CustomWeather, © 2015

Note: Actual official high and low records may vary slightly from our data, if they occured in-between our weather recording intervals... More about our weather records

Advertising

Toronto weather history for previous 24 hours

 ConditionsComfort  
Time TempWeatherWind HumidityBarometerVisibility
8:00 PM
Thu, Jul 30
79 °FPassing clouds.20 mph42%29.83 "Hg15 mi
7:00 PM82 °FScattered clouds.18 mph40%29.83 "Hg15 mi
6:00 PM84 °FPassing clouds.22 mph35%29.82 "Hg15 mi
5:00 PM82 °FPartly sunny.22 mph37%29.81 "Hg15 mi
4:00 PM86 °FScattered clouds.21 mph33%29.81 "Hg15 mi
3:00 PM86 °FPartly sunny.20 mph35%29.81 "Hg15 mi
2:00 PM84 °FPartly sunny.20 mph37%29.83 "Hg15 mi
1:00 PM84 °FPartly sunny.20 mph37%29.83 "Hg15 mi
12:00 PM82 °FPartly sunny.23 mph40%29.84 "Hg15 mi
11:00 AM82 °FPassing clouds.18 mph42%29.84 "Hg15 mi
10:00 AM81 °FPassing clouds.14 mph48%29.83 "Hg15 mi
9:00 AM77 °FPassing clouds.10 mph54%29.84 "Hg15 mi
8:00 AM73 °FPassing clouds.10 mph61%29.84 "Hg15 mi
7:00 AM72 °FPassing clouds.14 mph65%29.83 "Hg15 mi
6:00 AM68 °FPassing clouds.7 mph78%29.82 "Hg15 mi
5:00 AM73 °FPassing clouds.9 mph69%29.80 "Hg15 mi
4:00 AM77 °FPassing clouds.17 mph65%29.79 "Hg15 mi
3:00 AM79 °FPartly cloudy.14 mph65%29.78 "Hg15 mi
2:00 AM79 °FPartly cloudy.9 mph70%29.79 "Hg15 mi
1:00 AM79 °FPassing clouds.9 mph65%29.80 "Hg15 mi
12:00 AM81 °FPartly cloudy.12 mph62%29.81 "Hg15 mi
11:00 PM
Wed, Jul 29
81 °FPassing clouds.9 mph54%29.82 "Hg15 mi
10:00 PM82 °FPartly cloudy.7 mph51%29.82 "Hg15 mi
9:00 PM84 °FBroken clouds.10 mph45%29.82 "Hg15 mi
Weather by CustomWeather, © 2015

See weather overviewHow to use our weather pages